ECHOSTAR 3

导读 | 豆包AI

EchoStar 3是美国EchoStar公司运营的通信卫星,由洛克希德·马丁公司建造,于1997年10月5日搭乘Atlas 2AS火箭发射升空。该卫星属于地球静止轨道卫星,主要承担卫星电视广播传输服务,设计服役年限期满后超期服役多年,2017年8月运营方EchoStar与其失去联系,正式结束通信服务使命,在EchoStar早期卫星通信网络布局中发挥了关键作用。

基本信息
目录编号:
25004
目录名称:
ECHOSTAR 3
国际标识:
1997-059A
轨道中心:
EARTH
卫星名称:
ECHOSTAR 3
卫星全名:
--
卫星状态:
在轨 (已飞行10459 天)
发射日期:
1997-10-05 UTC
国别 :
美国 (US)
星等 :
--
轨道信息
数据来源 国际轨道数据 AOE轨道数据
星历时间 2026-05-25T08:20:08+0800
15小时前
查看轨道信息
2026-05-25T06:00:00+0800
18小时前
查看轨道信息
半长轴 42560.675km 42560.531km
偏心率 0.0015352 0.0015494
轨道倾角 9.474° 9.474°
近地点辐角 348.575° 348.735°
升交点赤经 55.991° 55.992°
平近点角 206.418° 171.619°
近地点 36117.198km 36116.45km
远地点 36247.878km 36248.338km
周期 1456.373分钟 1456.365分钟
每日圈数 0.988758 0.988763
详细信息
使用方式:
暂无
2D轨道图
3D轨道图
轨道高度分析图
轨道倾角分析图
轨道综合分析图
查看轨道综合分析图